Regional Weather Roundup
Issued by NWS

Home | Current Version | Previous Version | Graphics & Text | Print | Product List | Glossary On
Versions: 1 2 3 4 5 6 7 8 9 10 11 12 13 14 15 16 17 18 19 20 21 22 23 24 25 26 27 28 29 30 31 32 33 34 35 36 37 38 39 40 41 42 43 44 45 46 47 48 49 50
000
ASUS43 KDTX 040210
RWRMI
MICHIGAN HOURLY REGIONAL WEATHER ROUNDUP
NATIONAL WEATHER SERVICE DETROIT/PONTIAC MI
1000 PM EDT FRI JUL 03 2020

NOTE: "FAIR" INDICATES FEW OR NO CLOUDS BELOW 12,000 FEET WITH NO
SIGNIFICANT WEATHER AND/OR OBSTRUCTION TO VISIBILITY.

MIZ047>049-052>055-059>063-066>070-074>076-081>083-040300-
SOUTHEAST LOWER MICHIGAN

CITY           SKY/WX    TMP DP  RH WIND       PRES   REMARKS
ADRIAN         CLEAR     80  67  64 CALM      29.99R
ALMA           CLEAR     78  64  61 NE7       30.02R
ANN ARBOR      CLEAR     74  68  81 NW3       29.97S
BAD AXE        PTCLDY    73  67  79 NE3       30.01S
CARO           CLEAR     78  66  66 E3        30.00R
DETROIT CITY   CLEAR     81  64  56 NE8       29.99R
DETROIT        MOCLDY    83  67  58 E8        29.98R
FLINT          CLEAR     85  66  53 E14       30.00R
GROSSE ILE     PTCLDY    79  70  74 NE7       29.97R
HOWELL         CLEAR     79  68  69 CALM      29.99S

CITY           SKY/WX    TMP DP  RH WIND       PRES   REMARKS
JACKSON        CLOUDY    79  69  71 W6        30.00R
LAMBERTVILLE   CLEAR     77  69  77 CALM      29.97R
LANSING        CLEAR     79  65  62 CALM      29.99S
LAPEER         FAIR      76  67  74 CALM      30.01S
MASON          CLEAR     75  74  98 CALM      29.99S
MONROE         PTCLDY    79  70  74 CALM      29.95S
MT. CLEMENS    PTCLDY    76  69  79 NE7       29.98R
PONTIAC        PTCLDY    82  64  54 E10       29.99R
PORT HOPE        N/A     70  67  90 CALM      30.00S
PORT HURON     CLEAR     72  66  83 CALM      30.00R
TRI CITIES     PTCLDY    77  64  64 NE7       30.02R
MIDLAND        FAIR      75  67  76 CALM      30.01R
TROY           CLEAR     83  63  49 NE8       30.01R
SAGINAW HB     CLOUDY    79  64  61 NE6       30.01R
$$
MIZ043>046-050>051-056>058-064>065-071>073-077>080-040300-
SOUTHWEST LOWER MICHIGAN

CITY           SKY/WX    TMP DP  RH WIND       PRES   REMARKS
BATTLE CREEK   CLEAR     78  69  73 W6        30.02S
BENTON HARBOR  CLEAR     74  69  85 CALM      30.02S
BIG RAPIDS     CLEAR     79  63  56 CALM      30.02R
COLDWATER      MOCLDY    79  70  72 CALM      30.01S
FREMONT        FAIR      80  58  47 N3        30.00S
HOLLAND          N/A     75  67  76 W3        30.01S
GRAND RAPIDS   PTCLDY    81  68  64 W10       30.00R
IONIA          FAIR      82  64  55 W5        29.99R
KALAMAZOO      CLEAR     79  65  62 NW6       30.01S
LUDINGTON      CLEAR     73  66  78 CALM      30.02R
MARSHALL       CLEAR     79  70  73 W5        30.00S
MOUNT PLEASANT PTCLDY    77  67  69 E3        30.01S
MUSKEGON       PTCLDY    78  67  68 W5        30.00R
SOUTH HAVEN    CLEAR     73  71  94 CALM      30.02S
$$
MIZ016>042-040300-
NORTHERN LOWER MICHIGAN

CITY           SKY/WX    TMP DP  RH WIND       PRES   REMARKS
ALPENA         CLEAR     75  67  76 CALM      30.02S
BEAVER ISLAND  CLEAR     75  65  70 N5        30.05R
BELLAIRE       CLEAR     72  66  82 CALM      30.02S
CADILLAC       CLEAR     75  61  60 N5        30.05R
CHARLEVOIX     CLEAR     72  67  84 CALM      30.04R
FRANKFORT      CLEAR     73  67  81 N3        30.03S
GAYLORD        CLEAR     77  66  68 CALM      30.06R
GRAYLING       CLEAR     75  66  72 N3        30.03S
HARBOR SPRINGS CLEAR     71  71  99 CALM      30.03R
HOUGHTON LAKE  PTCLDY    76  68  76 CALM      30.05R
MANISTEE       CLEAR     73  66  78 CALM      30.02R
OSCODA         CLEAR     76  65  69 E3        30.01S HAZE
PELLSTON       CLEAR     77  66  68 N7        30.04R
ROGERS CITY    CLEAR     76  66  69 NW6       30.04R
TRAVERSE CITY  PTCLDY    78  67  68 CALM      30.02R
$$
MIZ007>008-015-040300-
EASTERN UPPER MICHIGAN

CITY           SKY/WX    TMP DP  RH WIND       PRES   REMARKS
KINROSS        CLEAR     70  64  81 N9        30.05S
MACKINAC ISLAN CLEAR     73  65  76 N8        30.04S
NEWBERRY       CLEAR     71  68  92 N3        30.07R
S. S. MARIE    CLEAR     71  65  81 W5        30.03S
MUNISING         N/A     66  63  90 CALM      30.06S
$$
MIZ004>006-011>014-085-040300-
CENTRAL UPPER MICHIGAN

CITY           SKY/WX    TMP DP  RH WIND       PRES   REMARKS
MANISTIQUE     CLEAR     74  66  77 N5        30.04S
ESCANABA       PTCLDY    74  63  68 NW5       30.05S
MENOMINEE      PTCLDY    78  69  73 CALM      30.05S
SAWYER-GWINN   CLEAR     72  66  83 N5        30.08S
$$
MIZ001>003-009>011-084-040300-
WESTERN UPPER MICHIGAN

CITY           SKY/WX    TMP DP  RH WIND       PRES   REMARKS
IRON MOUNTAIN  MOCLDY    78  61  55 NE5       30.06F
HOUGHTON       PTCLDY    73  65  75 CALM      30.07S
COPPER HARBOR    N/A     75  68  78 CALM      30.05R
IRONWOOD       PTCLDY    71  65  81 CALM      30.09S
$$

ABBREVIATIONS USED IN REMARKS
   TC - TEMPERATURE IN CELSIUS
  WCI - WIND CHILL INDEX
   HX - HEAT INDEX
  VSB - VISIBILITY





USA.gov is the U.S. government's official web portal to all federal, state and local government web resources and services.